This is the latest recevied weather packets stored in our database for station/object N2ZVN. If no packets are shown the sender has not sent any weather packets the latest 10 day(s).
| Time | Temp. | Humidity | Pressure | Rain* | Wind** | Luminosity | Snow |
|---|---|---|---|---|---|---|---|
| 1788525516 | 21.67° C | 83% | 1016.2 hPa | 0 mm | - | 234 W/m² | - |
| 1788525211 | 21.67° C | 83% | 1015.9 hPa | 0 mm | - | 211 W/m² | - |
| 1788524907 | 20.56° C | 87% | 1016 hPa | 0 mm | - | 189 W/m² | - |
| 1788524607 | 20° C | 89% | 1016 hPa | 0 mm | - | 173 W/m² | - |
| 1788524302 | 20° C | 89% | 1015.8 hPa | 0 mm | - | 153 W/m² | - |
| 1788523998 | 19.44° C | 89% | 1015.9 hPa | 0 mm | - | 138 W/m² | - |
| 1788523694 | 19.44° C | 89% | 1015.8 hPa | 0 mm | - | 124 W/m² | - |
| 1788523389 | 18.89° C | 91% | 1015.8 hPa | 0 mm | - | 106 W/m² | - |
| 1788523084 | 18.89° C | 91% | 1015.9 hPa | 0 mm | - | 40 W/m² | - |
| 1788522780 | 18.33° C | 92% | 1015.8 hPa | 0 mm | - | 27 W/m² | - |
| 1788522474 | 18.33° C | 94% | 1015.9 hPa | 0 mm | - | 26 W/m² | - |
| 1788522174 | 17.78° C | 97% | 1015.7 hPa | 0 mm | - | 37 W/m² | - |
| 1788521869 | 17.22° C | 98% | 1015.6 hPa | 0 mm | - | 38 W/m² | - |
| 1788521568 | 17.22° C | 98% | 1015.7 hPa | 0 mm | - | 33 W/m² | - |
| 1788521263 | 17.22° C | 98% | 1015.8 hPa | 0 mm | - | 30 W/m² | - |
| 1788520959 | 16.67° C | 98% | 1015.9 hPa | 0 mm | - | 17 W/m² | - |
| 1788520655 | 16.67° C | 98% | 1015.8 hPa | 0 mm | - | 14 W/m² | - |
| 1788520350 | 16.67° C | 98% | 1015.7 hPa | 0 mm | - | 13 W/m² | - |
| 1788520046 | 16.67° C | 98% | 1015.5 hPa | 0 mm | - | 10 W/m² | - |
| 1788519745 | 16.67° C | 98% | 1015.4 hPa | 0 mm | - | 8 W/m² | - |
| 1788519440 | 16.67° C | 98% | 1015.5 hPa | 0 mm | - | 7 W/m² | - |
| 1788519135 | 16.67° C | 98% | 1015.5 hPa | 0 mm | - | 5 W/m² | - |
| 1788518830 | 16.67° C | 98% | 1015.5 hPa | 0 mm | - | 3 W/m² | - |
| 1788518526 | 16.67° C | 98% | 1015.5 hPa | 0 mm | - | 2 W/m² | - |
| 1788518222 | 16.67° C | 98% | 1015.3 hPa | 0 mm | - | 1 W/m² | - |
* Rain latest hour (hover to see other rain measurements)
** Current wind speed in m/s (hover to see current wind gust speed)